Location: Britannia Beach
(45.3521°N, 62.9901°W)
Time: 18:46:35
(UTC+00:00)

X-37B - Pass Details

Date: 06 August 2021
Orbit: 381 x 393 km, 45.0° (Epoch: 29 August)

Event Time Altitude Azimuth Distance (km) Brightness Sun altitude
Exits shadow 08:05:58 11° 266° (W) 1,360 2.8 -9.4°
Maximum altitude 08:09:01 86° 178° (S) 386 0.5 -9.0°
Drops below altitude 10° 08:12:10 10° 89° (E) 1,398 4.4 -8.5°
Sets 08:14:14 0° 89° (E) 2,252 5.5 -8.2°
